Location: Casteau
(50.5142°N, 4.0161°E)
Time: 09:47:48
(UTC+00:00)

Tianhe-1 - Visible Passes

Search period start: 22 June 2021 00:00
Search period end: 02 July 2021 00:00
Orbit: 375 x 386 km, 41.5° (Epoch: 22 June)

Date Brightness Start Highest point End Pass type
(mag) Time Alt. Az. Time Alt. Az. Time Alt. Az.
24 Jun 3.3 02:00:26 11° S 02:00:55 11° SSE 02:01:57 10° SE visible
25 Jun 3.0 02:34:12 10° SSW 02:36:10 16° S 02:38:08 10° SE visible
26 Jun 3.2 01:35:53 13° SSE 01:35:53 13° SSE 01:37:05 10° SE visible
27 Jun 2.8 02:09:46 15° SSW 02:10:41 16° S 02:12:44 10° SE visible
28 Jun 3.5 01:11:40 11° SE 01:11:40 11° SE 01:11:51 10° SE visible
28 Jun 3.0 02:44:12 10° SW 02:45:56 14° S 02:47:40 10° SSE visible
29 Jun 3.0 01:45:55 15° SSE 01:45:55 15° SSE 01:47:09 10° SE visible
30 Jun 3.2 02:20:34 12° SSW 02:20:34 12° SSW 02:21:33 10° S visible
